Togiak, AK

3:34 PM AKDT on June 28, 2017 (GMT -0800)
Togiak

Weather History for PATG - September, 2014

Change the Weather History Date:

Sunday, September 28, 2014

  Actual Average Record
Temperature  
Mean Temperature 48 °F -  
Max Temperature 57 °F 46 °F 57 °F (2014)
Min Temperature 39 °F 34 °F 26 °F (1998)
Degree Days  
Heating Degree Days 17    
Moisture  
Dew Point 36 °F    
Average Humidity 66    
Maximum Humidity 87    
Minimum Humidity 53    
Precipitation  
Precipitation 0.00 in - - ()
Sea Level Pressure  
Sea Level Pressure 29.93 in    
Wind  
Wind Speed 10 mph (NW)    
Max Wind Speed 17 mph    
Max Gust Speed 23 mph    
Visibility 10 miles    
Events      
Averages and records for this station are not official NWS values.
T = Trace of Precipitation, MM = Missing Value Source: NWS Daily Summary

Daily Weather History Graph

Daily Weather History Graph

Search for Another Location

Airport or City:

Trip Planner

Search our weather history database for the weather conditions in past years. The results will help you decide how hot, cold, wet, or windy it might be!

Date:

Astronomy

Sep. 28, 2014 Rise Set
Actual Time 8:40 AM AKDT 8:22 PM AKDT
Civil Twilight 7:59 AM AKDT 9:02 PM AKDT
Nautical Twilight 7:12 AM AKDT 9:50 PM AKDT
Astronomical Twilight 6:21 AM AKDT 10:40 PM AKDT
Moon 2:05 PM AKDT 10:15 PM AKDT
Length of Visible Light 13h 02m
Length of Day
11h 42m
Waxing Crescent, 20% of the Moon is Illuminated
Sep 28
Waxing Crescent
Oct 1
First Quarter
Oct 8
Full
Oct 15
Last Quarter
Oct 23
New

Hourly Weather History & Observations

Time (AKDT) Temp. Windchill Dew Point Humidity Pressure Visibility Wind Dir Wind Speed Gust Speed Precip Events Conditions
12:16 AM 44.6 °F 37.8 °F 30.2 °F 57% 29.84 in 10.0 mi NNW 15.0 mph - N/A   Clear
12:36 AM 46.4 °F 40.7 °F 30.2 °F 53% 29.85 in 10.0 mi NNW 12.7 mph - N/A   Clear
12:56 AM 44.6 °F 39.2 °F 30.2 °F 57% 29.85 in 10.0 mi NNW 10.4 mph - N/A   Clear
1:16 AM 44.6 °F 37.8 °F 30.2 °F 57% 29.85 in 10.0 mi NNW 15.0 mph 18.4 mph N/A   Clear
1:36 AM 44.6 °F 38.4 °F 30.2 °F 57% 29.85 in 10.0 mi NNW 12.7 mph - N/A   Clear
1:56 AM 44.6 °F 38.1 °F 28.4 °F 53% 29.85 in 10.0 mi North 13.8 mph - N/A   Clear
2:16 AM 44.6 °F 38.8 °F 30.2 °F 57% 29.85 in 10.0 mi NNW 11.5 mph - N/A   Clear
2:36 AM 42.8 °F 36.6 °F 30.2 °F 61% 29.86 in 10.0 mi NNW 11.5 mph - N/A   Clear
2:56 AM 42.8 °F 35.8 °F 30.2 °F 61% 29.86 in 10.0 mi NW 13.8 mph - N/A   Clear
3:16 AM 44.6 °F 42.2 °F 30.2 °F 57% 29.87 in 10.0 mi North 4.6 mph - N/A   Clear
3:36 AM 42.8 °F 35.8 °F 30.2 °F 61% 29.87 in 10.0 mi NNW 13.8 mph - N/A   Clear
3:56 AM 42.8 °F 35.8 °F 30.2 °F 61% 29.87 in 10.0 mi NNW 13.8 mph - N/A   Clear
4:16 AM 42.8 °F 37.5 °F 30.2 °F 61% 29.88 in 10.0 mi NW 9.2 mph - N/A   Clear
4:36 AM 41.0 °F 38.0 °F 30.2 °F 65% 29.88 in 10.0 mi NW 4.6 mph - N/A   Clear
4:56 AM 44.6 °F 40.7 °F 30.2 °F 57% 29.88 in 10.0 mi NW 6.9 mph - N/A   Clear
5:16 AM 44.6 °F 41.4 °F 30.2 °F 57% 29.89 in 10.0 mi North 5.8 mph 16.1 mph N/A   Clear
5:36 AM 42.8 °F 38.6 °F 30.2 °F 61% 29.89 in 10.0 mi NW 6.9 mph - N/A   Clear
5:56 AM 39.2 °F 34.2 °F 30.2 °F 70% 29.89 in 10.0 mi NW 6.9 mph - N/A   Clear
6:16 AM 39.2 °F 33.0 °F 32.0 °F 75% 29.89 in 10.0 mi WNW 9.2 mph - N/A   Clear
6:36 AM 39.2 °F 37.0 °F 32.0 °F 75% 29.90 in 10.0 mi North 3.5 mph - N/A   Clear
6:56 AM 39.2 °F 34.2 °F 32.0 °F 75% 29.91 in 10.0 mi NNW 6.9 mph - N/A   Clear
7:16 AM 41.0 °F 35.8 °F 33.8 °F 76% 29.91 in 10.0 mi NW 8.1 mph - N/A   Clear
7:36 AM 39.2 °F 33.0 °F 33.8 °F 81% 29.91 in 10.0 mi NNW 9.2 mph - N/A   Clear
7:56 AM 39.2 °F 32.5 °F 33.8 °F 81% 29.91 in 10.0 mi NW 10.4 mph - N/A   Clear
8:16 AM 39.2 °F 35.9 °F 33.8 °F 81% 29.91 in 10.0 mi NNW 4.6 mph - N/A   Clear
8:36 AM 41.0 °F 34.7 °F 35.6 °F 81% 29.91 in 10.0 mi NW 10.4 mph - N/A   Clear
8:56 AM 41.0 °F 37.1 °F 35.6 °F 81% 29.91 in 10.0 mi NNW 5.8 mph - N/A   Clear
9:16 AM 39.2 °F - 35.6 °F 87% 29.92 in 10.0 mi Calm Calm - N/A   Clear
9:36 AM 42.8 °F 40.1 °F 37.4 °F 81% 29.92 in 10.0 mi NNW 4.6 mph - N/A   Clear
9:56 AM 44.6 °F 42.2 °F 39.2 °F 81% 29.93 in 10.0 mi WNW 4.6 mph - N/A   Clear
10:16 AM 46.4 °F 41.5 °F 39.2 °F 76% 29.93 in 10.0 mi WNW 10.4 mph - N/A   Mostly Cloudy
10:36 AM 48.2 °F - 39.2 °F 71% 29.93 in 10.0 mi NW 4.6 mph - N/A   Overcast
10:56 AM 50.0 °F - 41.0 °F 71% 29.94 in 10.0 mi NW 10.4 mph - N/A   Partly Cloudy
11:16 AM 50.0 °F - 41.0 °F 71% 29.94 in 10.0 mi NW 9.2 mph - N/A   Clear
11:36 AM 51.8 °F - 41.0 °F 67% 29.94 in 10.0 mi NW 9.2 mph - N/A   Clear
11:56 AM 51.8 °F - 41.0 °F 67% 29.95 in 10.0 mi NW 10.4 mph - N/A   Clear
12:16 PM 51.8 °F - 41.0 °F 67% 29.95 in 10.0 mi NNW 10.4 mph - N/A   Clear
12:36 PM 53.6 °F - 41.0 °F 62% 29.95 in 10.0 mi NW 12.7 mph - N/A   Clear
12:56 PM 53.6 °F - 41.0 °F 62% 29.95 in 10.0 mi NNW 11.5 mph - N/A   Mostly Cloudy
1:16 PM 51.8 °F - 39.2 °F 62% 29.95 in 10.0 mi NW 12.7 mph - N/A   Overcast
1:36 PM 51.8 °F - 41.0 °F 67% 29.95 in 10.0 mi NW 11.5 mph - N/A   Overcast
1:56 PM 53.6 °F - 41.0 °F 62% 29.95 in 10.0 mi NW 12.7 mph - N/A   Overcast
2:16 PM 53.6 °F - 41.0 °F 62% 29.95 in 10.0 mi NNW 12.7 mph - N/A   Overcast
2:36 PM 55.4 °F - 39.2 °F 54% 29.95 in 10.0 mi NNW 13.8 mph 17.3 mph N/A   Overcast
2:56 PM 55.4 °F - 39.2 °F 54% 29.94 in 10.0 mi NW 17.3 mph 23.0 mph N/A   Overcast
3:16 PM 55.4 °F - 39.2 °F 54% 29.95 in 10.0 mi NNW 13.8 mph - N/A   Overcast
3:36 PM 55.4 °F - 39.2 °F 54% 29.95 in 10.0 mi NW 11.5 mph - N/A   Overcast
3:56 PM 55.4 °F - 41.0 °F 58% 29.95 in 10.0 mi NW 11.5 mph 16.1 mph N/A   Overcast
4:16 PM 55.4 °F - 39.2 °F 54% 29.95 in 10.0 mi NNW 12.7 mph 19.6 mph N/A   Overcast
4:56 PM 55.4 °F - 41.0 °F 58% 29.95 in 10.0 mi NW 8.1 mph - N/A   Overcast
5:16 PM 55.4 °F - 39.2 °F 54% 29.95 in 10.0 mi NNW 12.7 mph - N/A   Overcast
5:36 PM 55.4 °F - 39.2 °F 54% 29.94 in 10.0 mi NW 10.4 mph - N/A   Overcast
5:56 PM 57.2 °F - 41.0 °F 55% 29.94 in 10.0 mi NNW 11.5 mph - N/A   Overcast
6:16 PM 57.2 °F - 41.0 °F 55% 29.95 in 10.0 mi NW 11.5 mph - N/A   Overcast
6:36 PM 55.4 °F - 41.0 °F 58% 29.94 in 10.0 mi WNW 15.0 mph - N/A   Mostly Cloudy
6:56 PM 55.4 °F - 41.0 °F 58% 29.95 in 10.0 mi WNW 15.0 mph - N/A   Scattered Clouds
7:16 PM 53.6 °F - 41.0 °F 62% 29.95 in 10.0 mi WNW 12.7 mph - N/A   Mostly Cloudy
7:36 PM 53.6 °F - 39.2 °F 58% 29.95 in 10.0 mi NW 10.4 mph - N/A   Partly Cloudy
7:56 PM 51.8 °F - 39.2 °F 62% 29.96 in 10.0 mi NNW 4.6 mph - N/A   Partly Cloudy
8:16 PM 48.2 °F - 39.2 °F 71% 29.96 in 10.0 mi NW 4.6 mph - N/A   Clear
8:36 PM 48.2 °F - 39.2 °F 71% 29.97 in 10.0 mi NW 4.6 mph - N/A   Clear
8:56 PM 48.2 °F - 39.2 °F 71% 29.97 in 10.0 mi WNW 3.5 mph - N/A   Partly Cloudy
9:16 PM 48.2 °F - 39.2 °F 71% 29.98 in 10.0 mi WNW 6.9 mph - N/A   Clear
9:36 PM 46.4 °F 42.4 °F 37.4 °F 71% 29.99 in 10.0 mi NW 8.1 mph - N/A   Clear
9:56 PM 46.4 °F 43.5 °F 37.4 °F 71% 29.99 in 10.0 mi West 5.8 mph - N/A   Clear
10:16 PM 44.6 °F 40.7 °F 37.4 °F 76% 30.00 in 10.0 mi NW 6.9 mph - N/A   Clear
10:36 PM 42.8 °F 38.0 °F 37.4 °F 81% 30.00 in 10.0 mi NW 8.1 mph - N/A   Clear
10:56 PM 42.8 °F 37.0 °F 35.6 °F 76% 30.01 in 10.0 mi NW 10.4 mph - N/A   Clear
11:16 PM 44.6 °F 40.2 °F 35.6 °F 71% 30.01 in 10.0 mi WNW 8.1 mph - N/A   Clear
11:36 PM 42.8 °F 38.0 °F 33.8 °F 70% 30.02 in 10.0 mi WNW 8.1 mph - N/A   Clear
11:56 PM 42.8 °F 38.0 °F 33.8 °F 70% 30.03 in 10.0 mi NW 8.1 mph - N/A   Clear